1514739600.65,16618,7.31,72958.5,-2.73,-3.55,-3.55,0,*5E
1514739601.91,16619,7.31,72962.8,-2.69,-3.51,-3.51,0,*54
1514739603.15,16620,7.31,72966.3,-2.73,-3.47,-3.51,0,*52
1514739604.39,16621,7.31,72962.5,-2.73,-3.51,-3.51,0,*54
1514739605.64,16622,7.31,72964.3,-2.69,-3.43,-3.47,0,*58
1514739606.87,16623,7.31,72958.5,-2.73,-3.55,-3.55,0,*56
1514739608.12,16624,7.31,72958.5,-2.73,-3.63,-3.63,0,*51
1514739609.36,16625,7.31,72956.3,-2.73,-3.63,-3.63,0,*50
1514739610.6,16626,7.31,72952.8,-2.73,-3.63,-3.63,0,*53
1514739611.87,16627,7.31,72958.3,-2.75,-3.67,-3.67,0,*54
1514739613.14,16628,7.31,72958.5,-2.75,-3.63,-3.63,0,*5B
1514739614.41,16629,7.31,72956.8,-2.75,-3.55,-3.55,0,*5A
1514739615.67,16630,7.31,72956.0,-2.75,-3.67,-3.63,0,*56
1514739616.94,16631,7.31,72956.3,-2.75,-3.55,-3.55,0,*53
1514739618.21,16632,7.31,72954.5,-2.75,-3.55,-3.55,0,*50
1514739619.47,16633,7.31,72954.0,-2.75,-3.55,-3.55,0,*51
1514739620.75,16634,7.31,72950.8,-2.75,-3.51,-3.51,0,*56
1514739622.02,16635,7.31,72956.3,-2.75,-3.51,-3.51,0,*57
1514739623.29,16636,7.31,72956.5,-2.75,-3.55,-3.55,0,*54
1514739624.56,16637,7.31,72958.5,-2.75,-3.55,-3.51,0,*51
1514739625.83,16638,7.31,72958.8,-2.75,-3.47,-3.51,0,*5D
1514739627.1,16639,7.31,72960.0,-2.75,-3.47,-3.47,0,*5B
1514739628.37,16640,7.31,72956.5,-2.77,-3.55,-3.51,0,*53
1514739629.61,16641,7.31,72954.8,-2.75,-3.39,-3.47,0,*5D
1514739630.84,16642,7.31,72960.0,-2.75,-3.39,-3.39,0,*57
1514739632.07,16643,7.31,72956.5,-2.75,-3.39,-3.39,0,*56
1514739633.29,16644,7.31,72954.0,-2.75,-3.35,-3.35,0,*51
1514739634.49,16645,7.31,72952.0,-2.73,-3.39,-3.35,0,*5A
1514739635.72,16646,7.31,72956.8,-2.73,-3.47,-3.39,0,*5C
1514739636.96,16647,7.25,72952.0,-2.73,-3.47,-3.47,0,*54
1514739638.16,16648,7.31,72956.5,-2.73,-3.39,-3.39,0,*5B
1514739639.35,16649,7.31,72950.8,-2.73,-3.39,-3.39,0,*5A
1514739640.59,16650,7.31,72948.3,-2.73,-3.47,-3.47,0,*52
1514739641.84,16651,7.31,72950.5,-2.69,-3.43,-3.43,0,*58
1514739643.06,16652,7.31,72950.5,-2.73,-3.47,-3.39,0,*59
1514739644.26,16653,7.31,72952.8,-2.73,-3.39,-3.39,0,*51
1514739645.46,16654,7.31,72952.0,-2.73,-3.39,-3.39,0,*56
1514739646.71,16655,7.31,72958.0,-2.75,-3.39,-3.51,0,*5F
1514739647.95,16656,7.31,72956.3,-2.73,-3.47,-3.47,0,*54
1514739649.19,16657,7.31,72960.0,-2.73,-3.51,-3.51,0,*55
1514739650.44,16658,7.31,72954.0,-2.73,-3.51,-3.51,0,*5A
1514739651.68,16659,7.31,72954.3,-2.73,-3.47,-3.51,0,*5C
1514739652.92,16660,7.31,72952.5,-2.73,-3.51,-3.51,0,*51
1514739654.17,16661,7.31,72960.0,-2.69,-3.47,-3.47,0,*5B
1514739655.41,16662,7.31,72958.0,-2.73,-3.51,-3.51,0,*53
1514739656.66,16663,7.31,72962.5,-2.73,-3.51,-3.51,0,*52
1514739657.9,16664,7.31,72960.0,-2.73,-3.51,-3.51,0,*55
1514739659.15,16665,7.31,72964.5,-2.73,-3.51,-3.51,0,*54
1514739660.39,16666,7.31,72964.3,-2.73,-3.51,-3.51,0,*57
1514739661.63,16667,7.31,72960.5,-2.73,-3.51,-3.51,0,*56
1514739662.88,16668,7.31,72956.5,-2.73,-3.51,-3.51,0,*59
1514739664.12,16669,7.31,72954.3,-2.73,-3.51,-3.51,0,*58
1514739665.39,16670,7.31,72950.8,-2.75,-3.47,-3.51,0,*51
1514739666.62,16671,7.31,72952.3,-2.75,-3.39,-3.39,0,*57
1514739667.87,16672,7.31,72948.5,-2.75,-3.35,-3.47,0,*51
1514739669.1,16673,7.31,72946.0,-2.75,-3.39,-3.35,0,*59
1514739670.29,16674,7.31,72944.3,-2.73,-3.39,-3.39,0,*54
1514739671.49,16675,7.31,72944.3,-2.73,-3.35,-3.35,0,*55
1514739672.69,16676,7.31,72946.0,-2.73,-3.39,-3.39,0,*56
1514739673.89,16677,7.31,72956.0,-2.73,-3.35,-3.39,0,*5B
1514739675.09,16678,7.31,72962.5,-2.69,-3.35,-3.31,0,*57
1514739676.29,16679,7.25,72962.0,-2.73,-3.35,-3.39,0,*55
1514739677.49,16680,7.31,72962.0,-2.73,-3.27,-3.35,0,*5C
1514739678.69,16681,7.31,72964.3,-2.73,-3.39,-3.35,0,*52
1514739679.93,16682,7.31,72966.0,-2.73,-3.51,-3.47,0,*5A
1514739681.17,16683,7.31,72964.3,-2.73,-3.47,-3.47,0,*5C
1514739682.39,16684,7.31,72968.5,-2.73,-3.47,-3.39,0,*52
1514739683.59,16685,7.31,72970.5,-2.73,-3.39,-3.39,0,*5A
1514739684.8,16686,7.31,72968.8,-2.69,-3.35,-3.35,0,*52
1514739685.99,16687,7.31,72962.0,-2.73,-3.39,-3.35,0,*54
1514739687.19,16688,7.31,72962.0,-2.73,-3.39,-3.39,0,*57
1514739688.41,16689,7.31,72958.0,-2.73,-3.47,-3.39,0,*5F
1514739689.61,16690,7.31,72956.8,-2.73,-3.39,-3.39,0,*5E
1514739690.82,16691,7.31,72958.0,-2.69,-3.35,-3.35,0,*54
1514739692.06,16692,7.31,72962.8,-2.73,-3.51,-3.47,0,*5B
1514739693.3,16693,7.31,72958.3,-2.73,-3.51,-3.47,0,*5A
1514739694.55,16694,7.31,72952.0,-2.69,-3.43,-3.43,0,*51
1514739695.79,16695,7.31,72954.8,-2.73,-3.51,-3.51,0,*5B
1514739697.04,16696,7.31,72948.8,-2.69,-3.51,-3.47,0,*54
1514739698.28,16697,7.31,72942.3,-2.73,-3.51,-3.51,0,*59
1514739699.52,16698,7.31,72954.8,-2.73,-3.51,-3.51,0,*56
1514739700.77,16699,7.31,72954.3,-2.73,-3.51,-3.51,0,*57
1514739702.01,16700,7.31,72954.5,-2.73,-3.55,-3.55,0,*56
1514739703.26,16701,7.31,72958.0,-2.69,-3.51,-3.51,0,*5C
1514739704.5,16702,7.31,72954.0,-2.73,-3.51,-3.47,0,*53
1514739705.74,16703,7.31,72958.3,-2.69,-3.43,-3.47,0,*5A
1514739706.96,16704,7.31,72958.0,-2.73,-3.43,-3.39,0,*5F
1514739708.18,16705,7.31,72956.0,-2.73,-3.39,-3.47,0,*5A
1514739709.37,16706,7.31,72958.5,-2.73,-3.39,-3.39,0,*50
1514739710.58,16707,7.31,72954.5,-2.69,-3.35,-3.35,0,*5A
1514739711.83,16708,7.31,72958.0,-2.69,-3.47,-3.47,0,*55
1514739713.07,16709,7.31,72952.8,-2.73,-3.47,-3.51,0,*58
1514739714.31,16710,7.31,72948.8,-2.73,-3.51,-3.51,0,*57
1514739715.55,16711,7.31,72948.3,-2.73,-3.63,-3.55,0,*53
1514739716.79,16712,7.31,72948.8,-2.73,-3.67,-3.63,0,*51
1514739718.03,16713,7.31,72954.5,-2.73,-3.55,-3.55,0,*54
1514739719.27,16714,7.31,72954.5,-2.73,-3.55,-3.55,0,*53
1514739720.51,16715,7.31,72954.8,-2.73,-3.55,-3.55,0,*52
1514739721.75,16716,7.31,72950.0,-2.73,-3.51,-3.51,0,*51
1514739722.99,16717,7.31,72948.5,-2.73,-3.51,-3.51,0,*50
1514739724.23,16718,7.31,72950.8,-2.73,-3.47,-3.47,0,*5F
1514739725.47,16719,7.31,72944.3,-2.73,-3.47,-3.47,0,*5E
1514739726.7,16720,7.31,72948.3,-2.69,-3.35,-3.47,0,*5A
1514739727.94,16721,7.31,72944.5,-2.73,-3.47,-3.47,0,*55
1514739729.14,16722,7.31,72944.3,-2.73,-3.39,-3.39,0,*56
1514739730.33,16723,7.31,72940.3,-2.73,-3.39,-3.35,0,*5B
1514739731.53,16724,7.31,72946.3,-2.73,-3.39,-3.39,0,*50
1514739732.73,16725,7.31,72946.8,-2.73,-3.39,-3.39,0,*51
1514739733.93,16726,7.31,72948.5,-2.73,-3.35,-3.35,0,*52
1514739735.12,16727,7.31,72944.5,-2.73,-3.35,-3.31,0,*57
1514739736.32,16728,7.31,72946.5,-2.73,-3.35,-3.31,0,*58
1514739737.53,16729,7.31,72950.5,-2.69,-3.35,-3.35,0,*56
1514739738.77,16730,7.31,72954.5,-2.69,-3.47,-3.47,0,*5E
1514739740.02,16731,7.31,72958.0,-2.73,-3.51,-3.51,0,*54
1514739741.26,16732,7.31,72958.0,-2.73,-3.51,-3.51,0,*57
1514739742.51,16733,7.31,72952.0,-2.69,-3.47,-3.47,0,*5D
1514739743.75,16734,7.31,72946.5,-2.69,-3.47,-3.47,0,*5A
1514739745.0,16735,7.31,72948.3,-2.69,-3.47,-3.51,0,*5C
1514739746.25,16736,7.31,72936.3,-2.73,-3.47,-3.51,0,*54
1514739747.49,16737,7.31,72940.3,-2.73,-3.47,-3.47,0,*52
1514739748.69,16738,7.31,72948.3,-2.73,-3.39,-3.39,0,*5D
1514739749.88,16739,7.31,72944.0,-2.73,-3.39,-3.35,0,*50
1514739751.09,16740,7.31,72942.8,-2.69,-3.35,-3.31,0,*5D
1514739752.28,16741,7.31,72944.3,-2.73,-3.35,-3.39,0,*5F
1514739753.49,16742,7.31,72950.3,-2.69,-3.31,-3.31,0,*5B
1514739754.71,16743,7.31,72952.0,-2.73,-3.39,-3.51,0,*5F
1514739755.95,16744,7.31,72952.5,-2.73,-3.51,-3.51,0,*56
1514739757.19,16745,7.31,72958.0,-2.73,-3.55,-3.51,0,*53
1514739758.44,16746,7.31,72962.3,-2.69,-3.51,-3.47,0,*58
1514739759.68,16747,7.31,72960.0,-2.73,-3.55,-3.51,0,*51
1514739760.92,16748,7.31,72962.0,-2.73,-3.51,-3.51,0,*5A
1514739762.16,16749,7.31,72960.8,-2.73,-3.47,-3.51,0,*5C
1514739763.41,16750,7.31,72960.0,-2.69,-3.47,-3.43,0,*5C
1514739764.66,16751,7.31,72964.8,-2.69,-3.47,-3.47,0,*59
1514739765.9,16752,7.31,72960.5,-2.73,-3.47,-3.47,0,*51
1514739767.12,16753,7.31,72936.5,-2.73,-3.47,-3.35,0,*55
1514739768.32,16754,7.31,72938.8,-2.69,-3.23,-3.23,0,*5C
1514739769.51,16755,7.31,72930.5,-2.73,-3.35,-3.35,0,*56
1514739770.71,16756,7.31,72928.3,-2.73,-3.35,-3.35,0,*55
1514739771.91,16757,7.31,72928.5,-2.73,-3.35,-3.35,0,*54
1514739773.11,16758,7.31,72924.0,-2.73,-3.39,-3.39,0,*5B
1514739774.33,16759,7.31,72928.8,-2.69,-3.43,-3.31,0,*54
1514739775.53,16760,7.31,72934.5,-2.73,-3.39,-3.39,0,*50
1514739776.73,16761,7.31,72936.3,-2.73,-3.35,-3.27,0,*52
1514739777.93,16762,7.31,72938.3,-2.73,-3.27,-3.35,0,*51
1514739779.14,16763,7.31,72936.5,-2.69,-3.31,-3.31,0,*58
1514739780.33,16764,7.31,72940.5,-2.73,-3.35,-3.35,0,*54
1514739781.54,16765,7.31,72944.8,-2.69,-3.35,-3.31,0,*5A
1514739782.74,16766,7.31,72948.3,-2.69,-3.35,-3.31,0,*59
1514739783.94,16767,7.31,72944.5,-2.69,-3.35,-3.35,0,*5C
1514739785.15,16768,7.31,72950.3,-2.69,-3.31,-3.31,0,*53
1514739786.35,16769,7.31,72956.8,-2.69,-3.35,-3.31,0,*56
1514739787.56,16770,7.31,72964.0,-2.73,-3.39,-3.47,0,*58
1514739788.81,16771,7.31,72960.5,-2.69,-3.47,-3.43,0,*5F
1514739790.06,16772,7.31,72966.3,-2.69,-3.47,-3.47,0,*58
1514739791.31,16773,7.31,72966.8,-2.69,-3.47,-3.47,0,*59
1514739792.55,16774,7.31,72970.8,-2.69,-3.47,-3.47,0,*5E
1514739793.8,16775,7.31,72970.0,-2.69,-3.43,-3.43,0,*5F
1514739795.05,16776,7.31,72970.5,-2.69,-3.43,-3.47,0,*58
1514739796.29,16777,7.31,72972.8,-2.69,-3.47,-3.47,0,*5D
1514739797.54,16778,7.31,72970.3,-2.69,-3.43,-3.47,0,*56
1514739798.78,16779,7.31,72968.3,-2.69,-3.43,-3.47,0,*57
1514739800.02,16780,7.31,72968.5,-2.73,-3.43,-3.47,0,*5A
1514739801.27,16781,7.31,72964.8,-2.69,-3.43,-3.43,0,*54
1514739802.47,16782,7.31,72966.8,-2.69,-3.31,-3.31,0,*57
1514739803.67,16783,7.31,72966.8,-2.69,-3.35,-3.31,0,*52
1514739804.87,16784,7.31,72960.8,-2.69,-3.35,-3.31,0,*55
1514739806.08,16785,7.31,72952.5,-2.69,-3.31,-3.31,0,*50
1514739807.28,16786,7.31,72948.0,-2.69,-3.35,-3.31,0,*57
1514739808.48,16787,7.31,72950.8,-2.69,-3.35,-3.31,0,*56
1514739809.68,16788,7.31,72950.5,-2.69,-3.31,-3.31,0,*5D
1514739810.89,16789,7.31,72956.3,-2.69,-3.35,-3.31,0,*58
1514739812.08,16790,7.31,72948.8,-2.73,-3.39,-3.35,0,*53
1514739813.29,16791,7.31,72944.8,-2.69,-3.31,-3.31,0,*55
1514739814.49,16792,7.31,72950.0,-2.69,-3.35,-3.31,0,*52
1514739815.71,16793,7.25,72948.5,-2.69,-3.35,-3.43,0,*56
1514739816.94,16794,7.25,72952.5,-2.69,-3.35,-3.43,0,*51
1514739818.17,16795,7.31,72952.8,-2.69,-3.43,-3.35,0,*50
1514739819.39,16796,7.31,72958.5,-2.69,-3.43,-3.35,0,*53
1514739820.64,16797,7.31,72948.0,-2.67,-3.35,-3.43,0,*5C
1514739821.9,16798,7.31,72950.8,-2.67,-3.43,-3.47,0,*56
1514739823.13,16799,7.31,72946.0,-2.67,-3.35,-3.31,0,*57
1514739824.37,16800,7.31,72940.3,-2.67,-3.43,-3.35,0,*5D
1514739825.62,16801,7.31,72950.0,-2.69,-3.43,-3.43,0,*53
1514739826.87,16802,7.31,72956.3,-2.69,-3.43,-3.43,0,*50
1514739828.11,16803,7.31,72954.0,-2.69,-3.43,-3.47,0,*55
1514739829.36,16804,7.31,72954.3,-2.69,-3.47,-3.43,0,*52
1514739830.61,16805,7.31,72952.8,-2.67,-3.43,-3.35,0,*58
1514739831.88,16806,7.31,72948.3,-2.67,-3.47,-3.47,0,*5A
1514739833.15,16807,7.31,72946.3,-2.67,-3.51,-3.59,0,*53
1514739834.42,16808,7.25,72938.8,-2.67,-3.63,-3.59,0,*5D
1514739835.7,16809,7.31,72942.8,-2.67,-3.59,-3.59,0,*55
1514739836.97,16810,7.31,72952.0,-2.67,-3.51,-3.51,0,*5D
1514739838.22,16811,7.31,72956.5,-2.69,-3.51,-3.51,0,*52
1514739839.47,16812,7.31,72960.8,-2.69,-3.51,-3.59,0,*59
1514739840.72,16813,7.31,72962.8,-2.69,-3.51,-3.51,0,*50
1514739841.97,16814,7.31,72960.3,-2.69,-3.47,-3.47,0,*57
1514739843.17,16815,7.31,72958.5,-2.69,-3.35,-3.35,0,*56
1514739844.4,16816,7.31,72956.3,-2.69,-3.43,-3.35,0,*54
1514739845.6,16817,7.31,72952.5,-2.69,-3.31,-3.35,0,*50
1514739846.8,16818,7.31,72948.3,-2.69,-3.23,-3.31,0,*58
1514739848.0,16819,7.31,72952.8,-2.69,-3.23,-3.31,0,*59
1514739849.2,16820,7.31,72952.8,-2.69,-3.31,-3.31,0,*50
1514739850.4,16821,7.31,72960.5,-2.69,-3.35,-3.35,0,*51
1514739851.63,16822,7.31,72960.3,-2.69,-3.35,-3.43,0,*53
1514739852.85,16823,7.31,72962.8,-2.69,-3.43,-3.35,0,*52
1514739854.08,16824,7.31,72960.5,-2.69,-3.43,-3.35,0,*55
1514739855.29,16825,7.31,72960.3,-2.69,-3.31,-3.35,0,*51
1514739856.49,16826,7.31,72960.0,-2.69,-3.31,-3.31,0,*56
1514739857.69,16827,7.31,72956.3,-2.69,-3.31,-3.31,0,*57
1514739858.91,16828,7.31,72960.8,-2.67,-3.35,-3.31,0,*52
1514739860.11,16829,7.31,72962.0,-2.69,-3.23,-3.19,0,*50
1514739861.3,16830,7.25,72960.3,-2.69,-3.23,-3.31,0,*52
1514739862.53,16831,7.31,72964.8,-2.67,-3.35,-3.35,0,*5E
1514739863.75,16832,7.31,72964.5,-2.67,-3.35,-3.31,0,*59
1514739864.94,16833,7.31,72964.5,-2.65,-3.31,-3.31,0,*5E
1514739866.17,16834,7.31,72966.8,-2.67,-3.35,-3.31,0,*5F
1514739867.39,16835,7.31,72966.5,-2.67,-3.35,-3.35,0,*5A
1514739868.61,16836,7.31,72968.0,-2.67,-3.31,-3.23,0,*5A
1514739869.83,16837,7.31,72968.0,-2.67,-3.35,-3.31,0,*5C
1514739871.06,16838,7.31,72968.3,-2.67,-3.31,-3.35,0,*53
1514739872.28,16839,7.31,72966.5,-2.67,-3.35,-3.35,0,*56
1514739873.53,16840,7.31,72968.5,-2.67,-3.31,-3.43,0,*5D
1514739874.72,16841,7.31,72970.8,-2.65,-3.31,-3.31,0,*5B
1514739875.94,16842,7.31,72970.5,-2.67,-3.11,-3.11,0,*5A
1514739877.13,16843,7.31,72972.5,-2.65,-3.23,-3.23,0,*59
1514739878.31,16844,7.31,72970.8,-2.65,-3.23,-3.23,0,*5E
1514739879.54,16845,7.31,72970.0,-2.67,-3.31,-3.31,0,*5D
1514739880.76,16846,7.31,72972.5,-2.67,-3.31,-3.31,0,*5E
1514739881.98,16847,7.31,72972.8,-2.67,-3.31,-3.35,0,*5B
1514739883.2,16848,7.31,72974.3,-2.67,-3.31,-3.23,0,*53
1514739884.4,16849,7.31,72972.8,-2.65,-3.27,-3.27,0,*53
1514739885.6,16850,7.31,72968.3,-2.65,-3.31,-3.31,0,*5B
1514739886.8,16851,7.31,72968.0,-2.65,-3.31,-3.39,0,*52
1514739887.99,16852,7.31,72968.8,-2.65,-3.27,-3.31,0,*5E
1514739889.19,16853,7.31,72956.8,-2.65,-3.27,-3.35,0,*5B
1514739890.39,16854,7.31,72954.5,-2.65,-3.31,-3.39,0,*57
1514739891.59,16855,7.31,72956.0,-2.65,-3.27,-3.39,0,*51
1514739892.81,16856,7.25,72954.8,-2.67,-3.35,-3.35,0,*5F
1514739894.01,16857,7.31,72952.8,-2.65,-3.27,-3.39,0,*53
1514739895.23,16858,7.31,72962.3,-2.65,-3.43,-3.39,0,*5E
1514739896.45,16859,7.31,72962.0,-2.65,-3.39,-3.43,0,*5F
1514739897.7,16860,7.31,72962.5,-2.67,-3.43,-3.35,0,*5B
1514739898.89,16861,7.31,72962.5,-2.65,-3.31,-3.31,0,*59
1514739900.11,16862,7.31,72960.8,-2.67,-3.35,-3.31,0,*5C
1514739901.33,16863,7.31,72966.5,-2.67,-3.31,-3.31,0,*59
1514739902.54,16864,7.25,72966.0,-2.65,-3.27,-3.27,0,*5C
1514739903.73,16865,7.31,72970.0,-2.65,-3.27,-3.31,0,*5A
1514739904.93,16866,7.31,72970.5,-2.65,-3.31,-3.31,0,*5E
1514739906.12,16867,7.31,72968.8,-2.65,-3.19,-3.03,0,*54
1514739907.33,16868,7.31,72970.3,-2.65,-2.95,-2.95,0,*50
1514739908.52,16869,7.31,72970.3,-2.65,-3.19,-3.15,0,*5D
1514739909.72,16870,7.31,72968.3,-2.65,-3.27,-3.39,0,*56
1514739910.94,16871,7.31,72968.3,-2.65,-3.31,-3.43,0,*5D
1514739912.13,16872,7.31,72970.8,-2.65,-3.31,-3.31,0,*5B
1514739913.36,16873,7.31,72974.0,-2.67,-3.31,-3.35,0,*5C
1514739914.55,16874,7.31,72970.0,-2.65,-3.35,-3.31,0,*59
1514739915.75,16875,7.25,72956.8,-2.65,-3.39,-3.39,0,*5C
1514739916.95,16876,7.25,72956.8,-2.65,-3.39,-3.31,0,*57
1514739918.14,16877,7.25,72962.8,-2.65,-3.27,-3.31,0,*59
1514739919.34,16878,7.25,72958.8,-2.65,-3.31,-3.31,0,*51
1514739920.53,16879,7.25,72960.5,-2.65,-3.31,-3.31,0,*50
1514739921.73,16880,7.25,72958.5,-2.65,-3.39,-3.27,0,*59
1514739922.93,16881,7.31,72964.5,-2.65,-3.39,-3.31,0,*5F
1514739924.13,16882,7.31,72952.8,-2.65,-3.39,-3.39,0,*54
1514739925.33,16883,7.25,72950.0,-2.65,-3.27,-3.27,0,*55
1514739926.53,16884,7.31,72944.3,-2.65,-3.27,-3.27,0,*52
1514739927.73,16885,7.31,72942.8,-2.65,-3.27,-3.31,0,*54
1514739928.95,16886,7.31,72940.0,-2.67,-3.31,-3.35,0,*56
1514739930.15,16887,7.25,72938.5,-2.65,-3.39,-3.31,0,*59
1514739931.34,16888,7.31,72944.0,-2.65,-3.39,-3.31,0,*56
1514739932.59,16889,7.31,72940.8,-2.63,-3.43,-3.39,0,*54
1514739933.83,16890,7.31,72938.5,-2.63,-3.43,-3.39,0,*5C
1514739935.08,16891,7.31,72942.8,-2.65,-3.43,-3.43,0,*56
1514739936.27,16892,7.31,72944.0,-2.65,-3.39,-3.39,0,*55
1514739937.54,16893,7.31,72944.3,-2.67,-3.47,-3.47,0,*56
1514739938.81,16894,7.25,72942.8,-2.67,-3.47,-3.47,0,*51
1514739940.05,16895,7.31,72940.0,-2.63,-3.39,-3.43,0,*59
1514739941.25,16896,7.31,72942.8,-2.65,-3.39,-3.39,0,*51
1514739942.52,16897,7.25,72932.5,-2.67,-3.43,-3.43,0,*52
1514739943.74,16898,7.31,72936.3,-2.65,-3.43,-3.39,0,*52
1514739945.0,16899,7.25,72926.0,-2.67,-3.43,-3.47,0,*58
1514739946.24,16900,7.31,72928.8,-2.65,-3.43,-3.43,0,*5F
1514739947.51,16901,7.25,72930.5,-2.67,-3.47,-3.47,0,*5C
1514739948.73,16902,7.25,72926.0,-2.65,-3.39,-3.43,0,*50
1514739950.0,16903,7.31,72928.3,-2.67,-3.43,-3.43,0,*5E
1514739951.22,16904,7.31,72916.8,-2.65,-3.43,-3.39,0,*56
1514739952.46,16905,7.25,72916.0,-2.65,-3.43,-3.43,0,*5A
1514739953.71,16906,7.31,72920.0,-2.63,-3.43,-3.39,0,*52
1514739954.92,16907,7.31,72930.8,-2.65,-3.39,-3.43,0,*55
1514739956.14,16908,7.31,72926.8,-2.65,-3.43,-3.39,0,*5A
1514739957.41,16909,7.31,72928.0,-2.67,-3.43,-3.43,0,*54
1514739958.61,16910,7.25,72924.0,-2.65,-3.31,-3.31,0,*5E
1514739959.83,16911,7.31,72926.8,-2.67,-3.35,-3.35,0,*5D
1514739961.03,16912,7.25,72932.0,-2.65,-3.27,-3.27,0,*5C
1514739962.26,16913,7.31,72940.3,-2.67,-3.31,-3.35,0,*5B
1514739963.46,16914,7.25,72930.0,-2.65,-3.31,-3.39,0,*52
1514739964.72,16915,7.31,72930.0,-2.67,-3.43,-3.43,0,*59
1514739965.92,16916,7.25,72914.5,-2.65,-3.39,-3.39,0,*58
1514739967.16,16917,7.31,72928.3,-2.65,-3.43,-3.43,0,*59
1514739968.39,16918,7.31,72920.5,-2.63,-3.39,-3.39,0,*50
1514739969.61,16919,7.25,72912.0,-2.65,-3.39,-3.43,0,*5A
1514739970.85,16920,7.25,72916.3,-2.65,-3.43,-3.43,0,*5D
1514739972.09,16921,7.25,72922.5,-2.63,-3.43,-3.39,0,*57
1514739973.29,16922,7.25,72926.5,-2.65,-3.39,-3.39,0,*5F
1514739974.49,16923,7.31,72928.5,-2.65,-3.31,-3.31,0,*5E
1514739975.71,16924,7.25,72922.5,-2.67,-3.23,-3.27,0,*5F
1514739976.9,16925,7.25,72930.0,-2.65,-3.27,-3.31,0,*5F
1514739978.11,16926,7.31,72938.8,-2.65,-3.27,-3.27,0,*5B
1514739979.3,16927,7.31,72936.5,-2.65,-3.27,-3.31,0,*5D
1514739980.5,16928,7.25,72936.5,-2.65,-3.27,-3.27,0,*55
1514739981.7,16929,7.25,72938.5,-2.65,-3.19,-3.27,0,*59
1514739982.9,16930,7.25,72940.5,-2.65,-3.27,-3.27,0,*5C
1514739984.11,16931,7.25,72946.5,-2.65,-3.27,-3.27,0,*5D
1514739985.31,16932,7.25,72940.5,-2.65,-3.27,-3.27,0,*5E
1514739986.5,16933,7.25,72940.5,-2.65,-3.27,-3.31,0,*58
1514739987.73,16934,7.25,72942.8,-2.63,-3.31,-3.27,0,*59
1514739988.96,16935,7.25,72942.0,-2.63,-3.27,-3.27,0,*5F
1514739990.18,16936,7.25,72946.8,-2.63,-3.27,-3.19,0,*51
1514739991.38,16937,7.25,72948.0,-2.61,-3.15,-3.15,0,*5F
1514739992.57,16938,7.25,72946.8,-2.65,-3.27,-3.19,0,*59
1514739993.8,16939,7.25,72940.8,-2.63,-3.31,-3.27,0,*54
1514739995.02,16940,7.31,72946.8,-2.63,-3.27,-3.31,0,*5A
1514739996.25,16941,7.25,72950.8,-2.63,-3.39,-3.39,0,*5C
1514739997.48,16942,7.31,72952.5,-2.63,-3.31,-3.39,0,*57
1514739998.7,16943,7.25,72952.5,-2.63,-3.31,-3.39,0,*56
1514739999.93,16944,7.31,72958.3,-2.63,-3.31,-3.27,0,*5E
1514740001.16,16945,7.25,72952.8,-2.63,-3.27,-3.27,0,*58
1514740002.35,16946,7.25,72950.0,-2.65,-3.19,-3.19,0,*5D
1514740003.57,16947,7.31,72952.3,-2.63,-3.19,-3.27,0,*57
1514740004.8,16948,7.25,72952.5,-2.63,-3.27,-3.27,0,*55
1514740006.02,16949,7.25,72948.0,-2.63,-3.31,-3.31,0,*54
1514740007.25,16950,7.25,72952.5,-2.63,-3.31,-3.31,0,*5C
1514740008.47,16951,7.25,72948.8,-2.63,-3.39,-3.39,0,*5D
1514740009.72,16952,7.25,72952.3,-2.63,-3.43,-3.39,0,*53
1514740010.94,16953,7.25,72944.0,-2.63,-3.39,-3.31,0,*57
1514740012.16,16954,7.25,72942.5,-2.63,-3.39,-3.31,0,*50
1514740013.39,16955,7.25,72946.8,-2.63,-3.39,-3.31,0,*51
1514740014.61,16956,7.25,72942.8,-2.63,-3.39,-3.31,0,*52
1514740015.84,16957,7.25,72944.3,-2.63,-3.27,-3.27,0,*5B
1514740017.06,16958,7.25,72944.0,-2.63,-3.27,-3.31,0,*53
1514740018.28,16959,7.31,72950.3,-2.63,-3.27,-3.31,0,*52
1514740019.47,16960,7.25,72948.0,-2.61,-3.23,-3.31,0,*5E
1514740020.7,16961,7.31,72952.8,-2.63,-3.27,-3.27,0,*5E
1514740021.89,16962,7.31,72954.5,-2.61,-3.23,-3.15,0,*5A
1514740023.12,16963,7.25,72952.8,-2.63,-3.27,-3.27,0,*5C
1514740024.34,16964,7.25,72956.0,-2.63,-3.15,-3.15,0,*5B
1514740025.56,16965,7.25,72958.8,-2.63,-3.15,-3.15,0,*5A
1514740026.78,16966,7.31,72966.3,-2.63,-3.19,-3.15,0,*55
1514740027.98,16967,7.25,72964.0,-2.61,-3.11,-3.11,0,*5A
1514740029.17,16968,7.25,72966.8,-2.61,-3.15,-3.23,0,*50
1514740030.36,16969,7.31,72964.8,-2.61,-3.27,-3.23,0,*50
1514740031.56,16970,7.31,72962.3,-2.61,-3.27,-3.27,0,*5C
1514740032.76,16971,7.31,72964.3,-2.61,-3.27,-3.27,0,*5D
1514740033.97,16972,7.25,72962.0,-2.61,-3.35,-3.27,0,*5D
1514740035.17,16973,7.25,72960.5,-2.61,-3.35,-3.27,0,*5C
1514740036.37,16974,7.25,72956.3,-2.61,-3.35,-3.35,0,*58
1514740037.57,16975,7.25,72956.5,-2.61,-3.35,-3.35,0,*59
1514740038.76,16976,7.31,72960.0,-2.61,-3.27,-3.35,0,*59
1514740039.99,16977,7.25,72960.3,-2.63,-3.31,-3.27,0,*5E
1514740041.19,16978,7.25,72956.0,-2.61,-3.39,-3.27,0,*5B
1514740042.39,16979,7.25,72962.0,-2.61,-3.35,-3.35,0,*55
1514740043.62,16980,7.25,72958.0,-2.63,-3.39,-3.39,0,*51
1514740044.82,16981,7.25,72954.5,-2.61,-3.35,-3.35,0,*52
1514740046.01,16982,7.31,72950.0,-2.61,-3.35,-3.35,0,*51
1514740047.24,16983,7.25,72954.5,-2.63,-3.39,-3.39,0,*52
1514740048.44,16984,7.25,72954.0,-2.61,-3.39,-3.35,0,*5B
1514740049.63,16985,7.25,72956.0,-2.61,-3.35,-3.39,0,*5A
1514740050.88,16986,7.25,72962.3,-2.63,-3.43,-3.39,0,*5A
1514740052.08,16987,7.25,72956.5,-2.61,-3.35,-3.35,0,*54
1514740053.31,16988,7.25,72958.3,-2.63,-3.39,-3.39,0,*59
1514740054.53,16989,7.25,72954.0,-2.63,-3.39,-3.39,0,*58
1514740055.75,16990,7.25,72950.3,-2.63,-3.39,-3.31,0,*58
1514740056.97,16991,7.25,72950.3,-2.63,-3.31,-3.31,0,*51
1514740058.17,16992,7.25,72948.3,-2.61,-3.27,-3.35,0,*53
1514740059.37,16993,7.25,72946.5,-2.61,-3.35,-3.39,0,*5D
1514740060.59,16994,7.25,72944.5,-2.61,-3.39,-3.43,0,*5B
1514740061.81,16995,7.25,72948.5,-2.63,-3.39,-3.31,0,*5D
1514740063.01,16996,7.25,72948.5,-2.61,-3.27,-3.23,0,*50
1514740064.21,16997,7.25,72954.0,-2.61,-3.27,-3.27,0,*55
1514740065.43,16998,7.25,72954.0,-2.63,-3.31,-3.31,0,*58
1514740066.65,16999,7.25,72956.0,-2.63,-3.31,-3.31,0,*59
1514740067.86,17000,7.25,72956.0,-2.61,-3.27,-3.27,0,*53
1514740069.08,17001,7.25,72960.5,-2.63,-3.19,-3.27,0,*5D
1514740070.28,17002,7.31,72966.3,-2.61,-3.27,-3.39,0,*5E
1514740071.55,17003,7.31,72966.3,-2.63,-3.43,-3.43,0,*52
1514740072.77,17004,7.25,72958.3,-2.61,-3.43,-3.39,0,*5A
1514740073.96,17005,7.25,72958.8,-2.61,-3.39,-3.39,0,*56
1514740075.21,17006,7.25,72956.3,-2.63,-3.39,-3.43,0,*5A
1514740076.41,17007,7.31,72960.5,-2.61,-3.35,-3.35,0,*54
1514740077.63,17008,7.31,72964.3,-2.63,-3.31,-3.31,0,*59
1514740078.85,17009,7.25,72962.0,-2.63,-3.31,-3.31,0,*58
1514740080.08,17010,7.25,72962.8,-2.63,-3.31,-3.31,0,*50
1514740081.31,17011,7.25,72962.3,-2.63,-3.31,-3.27,0,*56
1514740082.5,17012,7.25,72962.0,-2.61,-3.23,-3.27,0,*54
1514740083.75,17013,7.25,72962.5,-2.63,-3.43,-3.39,0,*5E
1514740084.95,17014,7.25,72964.0,-2.61,-3.35,-3.35,0,*56
1514740086.14,17015,7.25,72958.3,-2.61,-3.35,-3.39,0,*5B
1514740087.34,17016,7.25,72958.5,-2.61,-3.35,-3.35,0,*54
1514740088.54,17017,7.25,72954.0,-2.61,-3.35,-3.39,0,*59
1514740089.77,17018,7.25,72954.8,-2.63,-3.39,-3.39,0,*58
1514740090.99,17019,7.25,72954.0,-2.63,-3.27,-3.19,0,*54
1514740092.18,17020,7.25,72952.0,-2.61,-3.11,-3.11,0,*51
1514740093.38,17021,7.25,72950.8,-2.61,-3.15,-3.19,0,*5C
1514740094.57,17022,7.25,72950.3,-2.61,-3.11,-3.11,0,*53
1514740095.77,17023,7.25,72948.0,-2.61,-3.03,-3.03,0,*52
1514740096.96,17024,7.25,72946.3,-2.61,-3.11,-3.23,0,*54
1514740098.15,17025,7.25,72946.8,-2.61,-3.23,-3.27,0,*50
1514740099.38,17026,7.25,72944.0,-2.63,-3.31,-3.31,0,*55
1514740100.6,17027,7.25,72956.5,-2.63,-3.39,-3.31,0,*5C
1514740101.79,17028,7.25,72962.3,-2.61,-3.23,-3.27,0,*5D
1514740102.99,17029,7.25,72956.0,-2.61,-3.11,-3.15,0,*5C
1514740104.18,17030,7.25,72956.5,-2.61,-3.27,-3.15,0,*51
1514740105.37,17031,7.25,72958.3,-2.61,-3.23,-3.23,0,*51
1514740106.55,17032,7.25,72960.3,-2.61,-3.23,-3.15,0,*57
1514740107.75,17033,7.25,72966.0,-2.61,-3.15,-3.11,0,*57
1514740108.97,17034,7.25,72966.5,-2.63,-3.15,-3.19,0,*5A
1514740110.16,17035,7.25,72966.5,-2.61,-3.15,-3.23,0,*50
1514740111.36,17036,7.25,72964.3,-2.61,-3.15,-3.23,0,*53
1514740112.55,17037,7.25,72966.5,-2.61,-3.11,-3.15,0,*53
1514740113.77,17038,7.25,72964.5,-2.63,-3.19,-3.15,0,*56